Theta_e
291 286 280 286 287 287 286 285 283 285 289 288 288 288 289 290 290 290 291 292 293 295 297 298 299 300 300 301 301 301 302 304 306 308 311 318 322 325 326 327 327 326 324 323
286 284 287 290 290 288 286 282 281 285 288 289 287 286 289 289 290 291 292 291 293 294 295 296 297 298 298 299 299 301 301 303 305 308 312 317 323 326 326 326 326 326 324 323
282 286 289 287 285 285 283 281 278 283 286 289 284 281 284 287 289 291 291 292 292 292 292 294 294 295 296 297 298 300 301 302 306 308 312 315 323 325 324 324 325 324 324 323
284 287 287 284 284 285 282 286 285 285 283 277 283 274 274 282 285 288 289 289 289 290 291 292 293 293 295 296 298 299 300 302 306 308 310 313 319 319 323 323 324 324 323 323
283 285 284 284 284 286 282 287 286 284 283 284 277 277 276 281 281 285 288 288 288 289 290 291 292 293 295 296 297 298 299 301 305 309 311 315 317 319 320 320 317 316 320 322
285 288 286 285 287 286 288 285 283 283 283 272 273 275 275 277 281 284 287 287 287 288 289 290 293 294 294 295 296 297 298 299 303 305 308 310 316 311 310 310 309 309 311 313
283 284 286 287 283 286 286 280 272 271 269 272 278 276 278 281 284 286 287 285 286 286 287 288 290 291 292 292 293 295 296 296 299 302 304 306 307 308 307 308 308 308 308 308
279 277 284 287 283 281 283 281 274 269 269 272 279 274 280 284 286 288 286 285 286 286 286 287 288 289 290 291 292 293 294 295 297 300 301 302 305 306 306 307 307 307 307 307
279 279 285 285 286 284 282 279 282 277 273 273 275 279 283 285 284 284 283 284 284 285 285 286 287 288 288 289 291 292 293 294 296 296 298 299 300 301 302 304 305 305 306 306
283 278 283 285 287 286 283 285 278 276 268 268 272 276 277 282 283 283 282 282 283 285 285 285 286 286 287 289 290 292 292 293 294 295 296 296 297 298 299 299 299 300 301 302
284 281 279 283 282 281 282 281 281 280 278 272 270 274 281 283 284 284 283 282 283 284 285 285 285 286 286 287 288 289 291 292 292 293 294 294 294 295 296 296 296 296 296 297
285 281 276 278 281 283 282 281 281 275 273 276 276 276 284 284 285 285 284 282 283 284 284 284 285 285 285 285 287 287 289 290 291 292 293 292 292 293 293 293 293 294 293 294
286 276 269 274 278 281 281 282 283 281 280 275 273 275 283 283 283 284 282 281 283 283 284 284 284 284 284 285 285 286 287 289 290 291 292 292 291 291 291 291 292 292 292 292
288 279 277 275 277 279 279 281 282 281 275 276 277 277 281 282 282 282 281 282 282 283 283 283 283 284 284 285 285 285 286 287 288 289 290 290 290 290 290 290 290 291 291 291
284 275 277 279 280 281 281 281 281 281 280 277 277 278 282 283 283 284 282 281 281 282 283 283 283 283 284 284 284 285 285 286 287 287 288 288 289 290 290 290 289 289 289 289
283 275 275 272 277 278 276 280 280 282 282 281 281 281 284 284 283 281 282 282 282 282 283 283 283 284 284 284 284 285 284 285 286 285 285 286 287 287 287 288 288 288 288 288
281 276 272 270 272 271 274 275 279 280 280 283 279 283 283 282 283 283 283 283 283 283 283 283 283 284 284 284 285 284 284 284 284 284 284 284 285 285 285 286 286 286 286 286
277 274 269 268 267 267 281 278 278 280 281 283 283 282 284 285 286 287 285 285 284 284 284 283 284 284 284 284 284 284 284 284 284 284 284 284 284 284 284 284 284 284 284 284
281 277 265 269 265 275 282 276 277 277 279 282 283 285 283 283 283 284 285 285 286 285 286 286 285 284 283 283 284 284 283 284 284 283 283 283 284 283 283 283 283 283 283 283
279 278 274 261 267 269 280 277 279 279 276 281 283 283 281 283 279 283 285 286 285 285 285 285 284 284 284 283 283 283 283 283 283 283 283 283 283 283 282 282 283 283 283 283
275 270 270 265 266 271 280 279 279 275 282 279 280 281 282 282 284 284 284 284 286 286 284 284 284 285 284 283 283 283 282 282 283 283 282 281 281 282 282 282 281 282 282 282
277 273 268 264 265 270 280 278 278 283 279 281 280 281 283 283 284 283 283 282 283 283 283 285 284 284 283 283 283 282 282 283 282 281 280 277 276 279 280 279 279 279 281 280
276 279 276 277 276 282 282 281 282 281 281 281 281 282 283 283 283 284 283 282 282 283 284 284 285 283 282 282 283 282 282 281 278 275 273 272 274 277 277 279 278 278 279 279
277 280 276 278 283 282 281 283 281 281 281 282 282 283 283 282 283 283 283 282 282 283 284 284 282 283 282 281 281 281 280 278 274 273 272 272 274 275 275 277 278 278 279 280
278 280 276 276 281 281 283 283 284 284 281 282 282 283 283 283 283 283 283 282 282 283 282 283 283 283 282 280 279 276 276 274 273 272 272 273 273 274 274 275 277 279 281 282
278 278 280 279 286 286 286 286 286 283 282 283 282 281 283 283 284 283 283 282 282 282 281 281 282 281 280 280 278 275 274 274 273 272 272 273 273 272 273 275 277 283 284 284
Wind_Speed
3 6 2 4 3 5 5 3 3 4 2 3 3 3 2 3 4 6 8 11 13 13 16 12 13 14 14 13 14 14 14 15 12 9 7 7 9 7 5 9 13 12 10 10
5 3 4 5 4 4 2 2 3 4 3 2 3 6 4 1 3 4 6 6 10 13 14 14 16 16 15 15 15 14 14 14 12 9 7 5 5 5 8 6 9 12 10 11
4 4 5 3 2 3 3 4 3 3 4 1 7 4 2 3 4 5 4 5 6 9 14 15 15 16 17 18 17 15 15 17 13 12 7 6 3 2 5 8 7 11 14 12
3 1 4 2 2 4 1 4 3 2 3 2 4 6 5 4 7 4 5 7 7 10 11 12 16 16 18 18 19 20 20 21 14 11 8 9 3 5 4 4 6 6 11 11
2 5 3 2 2 4 2 4 3 0 1 3 5 2 8 2 5 6 5 6 6 7 9 12 13 15 15 16 17 17 19 19 16 8 3 7 4 2 4 5 7 10 5 7
2 1 2 3 2 1 3 3 3 3 1 2 4 4 7 5 6 4 3 5 6 7 8 10 11 14 14 16 18 19 20 19 17 11 13 11 9 8 10 9 10 10 8 8
1 2 1 2 3 1 2 3 4 6 4 4 3 2 11 5 6 5 4 4 5 6 7 8 12 13 14 15 16 16 21 20 19 16 16 16 14 15 14 11 8 10 11 13
6 3 5 3 2 4 1 3 5 5 2 5 2 6 6 5 3 4 3 2 2 6 6 7 8 10 11 13 14 16 17 21 21 18 18 17 15 11 12 14 12 10 11 12
5 2 1 2 2 2 2 2 2 6 1 2 4 7 5 2 4 4 5 3 3 4 5 6 7 7 9 10 10 11 14 16 19 19 17 19 18 17 14 15 13 12 12 13
6 5 1 2 2 3 2 5 3 3 1 5 5 6 6 6 10 8 7 7 5 2 4 5 6 7 8 8 9 10 11 11 12 14 13 13 14 13 13 12 14 15 12 11
3 2 0 2 5 7 2 2 3 3 3 4 3 7 7 7 9 12 9 8 7 5 3 2 4 5 6 7 8 8 8 10 10 9 8 10 10 11 12 12 12 10 11 10
5 4 4 3 0 0 2 5 5 5 5 3 1 10 1 6 6 8 9 8 6 6 4 1 3 5 5 6 6 6 7 8 7 7 9 11 11 11 12 11 10 9 10 9
7 2 3 7 5 2 5 5 4 4 3 7 5 8 2 2 3 6 8 8 7 6 6 3 2 2 3 4 6 6 6 6 8 8 9 10 11 10 10 10 10 9 9 9
5 2 5 7 4 5 6 5 6 6 4 5 10 5 5 7 7 7 8 8 8 8 7 5 4 2 1 2 3 4 5 5 5 7 8 9 9 8 7 8 9 8 8 10
4 5 2 3 3 2 3 5 10 16 7 10 3 12 11 11 13 14 9 7 8 8 8 7 5 5 3 1 3 3 4 5 4 7 8 7 6 7 7 8 8 8 9 8
2 2 2 4 2 2 7 11 12 15 16 18 15 29 13 9 5 7 11 11 10 10 9 8 7 7 6 5 2 2 4 4 3 6 6 5 6 6 6 7 7 8 8 9
7 7 3 6 3 4 11 15 23 9 8 19 14 15 5 5 10 12 13 14 15 13 11 10 10 9 7 6 6 4 4 4 4 4 5 5 5 5 5 6 6 7 6 5
7 6 3 3 3 2 8 4 5 18 9 17 10 9 9 8 11 10 10 16 15 13 11 10 8 7 7 6 6 5 4 4 4 4 4 3 5 5 5 5 5 6 4 6
1 6 3 5 5 8 9 6 9 9 10 25 26 19 7 4 0 8 10 13 18 17 13 11 9 8 8 8 7 6 5 4 5 3 3 3 4 5 5 5 4 4 5 4
4 5 5 3 5 9 6 4 4 4 9 7 19 13 9 8 5 8 11 14 12 10 11 11 9 6 8 7 7 7 6 5 5 5 4 3 3 4 5 4 5 3 2 3
5 2 7 3 5 11 11 6 7 7 9 5 8 8 13 10 7 3 5 9 12 14 14 9 11 12 11 9 9 7 6 7 5 5 5 4 4 4 4 3 2 2 4 5
13 11 6 4 2 14 13 6 11 7 2 5 5 7 13 7 6 3 3 7 10 12 12 14 13 10 8 11 10 8 9 7 7 6 6 4 4 3 3 3 3 4 5 6
8 10 11 14 13 1 18 6 11 4 6 6 5 6 8 9 8 7 6 8 10 12 13 13 14 11 8 10 11 10 8 8 7 6 6 4 4 3 3 4 4 4 4 3
6 4 5 4 11 16 12 16 6 7 5 5 4 7 9 7 9 8 5 7 8 10 12 12 12 13 12 10 10 8 8 7 8 7 6 5 5 4 4 3 3 4 3 3
7 15 9 8 9 3 12 18 16 14 8 6 4 7 8 8 7 8 7 7 9 11 9 11 14 14 14 10 9 7 8 9 7 6 6 5 4 4 4 3 4 4 3 3
8 10 12 11 10 6 6 14 19 13 16 16 10 7 6 9 9 8 8 7 9 11 8 10 10 10 9 12 10 8 9 11 10 6 5 4 4 3 3 4 4 4 5 7
Wind_Direction
8 73 130 159 107 127 125 136 203 253 257 309 228 287 333 2 349 335 318 359 349 344 347 336 335 348 332 328 328 328 320 314 304 289 273 264 230 187 200 195 202 187 193 182
31 128 184 125 125 107 104 113 283 293 287 222 326 291 200 197 266 263 295 316 341 346 354 350 354 338 339 335 334 324 326 313 302 286 274 288 242 187 183 185 190 196 172 170
138 179 141 126 142 132 171 152 233 242 320 264 324 327 299 262 275 269 306 301 312 330 339 349 348 342 339 343 335 333 337 326 304 286 274 266 222 220 184 178 190 186 178 177
123 147 155 135 186 147 241 184 186 296 34 289 22 286 290 257 284 266 306 322 335 345 340 344 340 346 348 341 340 345 347 333 316 290 251 246 209 187 189 163 181 167 174 177
166 159 160 173 226 187 170 151 183 227 149 308 336 82 268 335 279 277 303 322 339 336 340 339 346 344 341 346 344 351 344 333 328 320 18 226 146 71 84 91 85 66 98 166
137 312 177 184 94 205 147 122 54 60 97 359 248 113 279 199 210 257 271 322 339 339 345 345 349 348 354 353 350 347 347 346 344 7 44 60 108 95 88 87 86 80 74 83
40 219 229 140 111 313 114 70 338 353 10 226 183 84 246 230 224 218 255 310 338 339 344 349 353 349 347 353 348 346 348 354 357 21 47 53 71 81 81 78 89 95 87 83
161 287 174 165 210 183 159 164 154 225 265 290 154 238 253 208 188 223 220 276 346 341 349 347 351 348 349 346 348 350 353 354 359 17 43 48 57 69 69 72 81 73 81 77
145 184 106 80 143 126 168 187 154 108 41 7 217 278 280 157 212 218 236 264 309 331 349 345 346 359 345 351 347 350 356 358 2 8 26 38 42 50 57 66 70 76 71 73
206 115 80 134 91 44 177 156 72 7 47 296 280 271 243 213 224 217 220 227 254 286 334 3 353 359 352 351 351 3 2 4 4 12 23 34 38 44 50 56 56 55 56 62
143 88 151 107 202 182 146 208 68 118 149 191 294 262 213 218 204 199 205 206 208 229 253 355 352 359 355 354 1 358 5 10 11 16 25 50 52 54 55 59 60 62 67 64
197 136 163 191 238 295 225 208 168 137 218 228 153 270 239 236 215 186 188 197 197 204 218 249 21 1 14 358 0 5 1 22 14 19 33 40 43 47 54 54 56 55 65 62
181 274 62 351 357 352 225 197 164 112 101 203 149 263 154 264 208 202 185 194 196 191 201 190 117 59 21 15 0 359 13 28 14 21 36 42 47 49 48 52 54 56 67 64
113 147 177 187 170 136 205 193 181 155 162 192 226 253 217 222 218 219 213 197 193 198 195 186 166 149 99 68 55 14 8 26 40 38 41 43 39 47 50 58 61 60 59 64
142 199 156 261 251 230 238 203 191 209 197 193 234 222 223 209 207 211 204 188 187 205 200 191 184 166 167 93 69 68 37 39 20 65 60 42 32 38 48 52 54 55 60 60
171 169 95 302 1 257 259 235 233 223 231 253 264 278 207 214 171 175 199 190 198 205 202 194 180 176 167 164 161 103 79 42 56 76 60 61 60 51 41 46 50 57 53 53
153 138 115 261 343 338 290 219 208 197 208 216 216 235 134 173 196 207 203 196 202 202 195 193 182 176 170 179 170 154 130 98 55 66 69 61 71 66 55 54 49 51 49 60
140 111 87 199 12 270 242 158 187 219 227 215 239 223 194 198 211 216 196 191 200 197 193 194 178 167 164 171 164 151 149 121 89 72 77 58 68 67 55 61 56 51 43 48
158 132 105 154 202 297 276 195 168 177 268 216 221 235 210 129 110 252 198 196 199 190 191 189 175 166 159 164 161 154 149 140 137 116 83 47 63 67 57 53 58 57 49 39
96 51 121 139 180 217 241 180 161 140 288 201 201 214 161 136 209 250 184 188 196 176 170 167 168 152 150 167 153 158 166 164 170 154 137 121 98 96 81 52 50 57 86 86
136 63 178 184 234 284 236 157 144 100 238 156 179 167 158 191 204 244 134 175 187 175 164 150 161 176 176 157 155 168 164 189 174 147 136 102 70 80 67 66 65 81 70 66
170 156 172 105 177 265 151 89 179 204 119 157 169 183 188 181 197 233 185 159 161 163 153 166 166 176 170 163 161 173 184 172 152 146 134 107 78 76 99 112 79 57 82 74
205 186 179 190 202 228 195 203 212 158 162 197 176 191 184 174 200 209 211 175 180 176 170 169 169 169 176 175 172 175 193 154 147 134 137 130 133 133 121 118 107 83 83 93
238 174 209 129 234 223 217 246 257 205 212 185 198 169 166 175 188 208 203 183 174 171 177 170 154 171 181 185 183 176 158 150 146 148 156 150 145 126 102 88 86 108 120 129
185 148 166 267 274 337 243 226 231 218 219 223 202 180 189 174 197 194 193 194 184 179 172 172 177 180 186 174 183 170 155 149 154 150 158 150 146 141 125 118 135 145 151 143
186 168 187 212 211 198 226 206 212 195 208 210 192 200 201 182 198 186 206 193 181 181 168 180 190 181 174 175 177 172 166 161 152 154 161 158 147 147 155 153 133 131 130 134